EN

Hourly Weather Avonbridge

Today, 24 July, Saturday

Time Temperature Precipitation Wind Pressure Humidity
00:00 +13°C° 0 mm 1 mps 748 mmHg 96%
01:00 +13°C° 0 mm 1 mps 748 mmHg 96%
02:00 +12°C° 0 mm 1 mps 747 mmHg 96%
03:00 +12°C° 0 mm 1 mps 747 mmHg 97%
04:00 +13°C° 0 mm 1 mps 747 mmHg 95%
05:00 +13°C° 0 mm 1 mps 747 mmHg 94%
06:00 +13°C° 0 mm 1 mps 746 mmHg 92%
07:00 +15°C° 0 mm 2 mps 746 mmHg 85%
08:00 +17°C° 0 mm 2 mps 746 mmHg 78%
09:00 +18°C° 0 mm 2 mps 746 mmHg 70%
10:00 +19°C° 0 mm 2 mps 746 mmHg 65%
11:00 +20°C° 0 mm 2 mps 746 mmHg 60%
12:00 +23°C° 0 mm 2 mps 746 mmHg 55%
13:00 +23°C° 0 mm 2 mps 745 mmHg 55%
14:00 +23°C° 0 mm 2 mps 745 mmHg 55%
15:00 +22°C° 0 mm 3 mps 745 mmHg 55%
16:00 +23°C° 0 mm 2 mps 745 mmHg 59%
17:00 +21°C° 0 mm 2 mps 745 mmHg 63%
18:00 +20°C° 0 mm 2 mps 745 mmHg 67%
19:00 +18°C° 0 mm 2 mps 745 mmHg 75%
20:00 +16°C° 0 mm 2 mps 745 mmHg 82%
21:00 +14°C° 0 mm 1 mps 745 mmHg 89%
22:00 +13°C° 0 mm 1 mps 745 mmHg 90%
23:00 +13°C° 0 mm 1 mps 745 mmHg 91%

Tomorrow, 25 July, Sunday

Time Temperature Precipitation Wind Pressure Humidity
00:00 +12°C° 0 mm 1 mps 745 mmHg 92%
01:00 +12°C° 0 mm 1 mps 745 mmHg 93%
02:00 +11°C° 0 mm 1 mps 745 mmHg 93%
03:00 +11°C° 0 mm 1 mps 745 mmHg 93%
04:00 +12°C° 0 mm 1 mps 745 mmHg 92%
05:00 +12°C° 0 mm 1 mps 745 mmHg 91%
06:00 +13°C° 0 mm 1 mps 745 mmHg 89%
07:00 +14°C° 0 mm 2 mps 745 mmHg 83%
08:00 +16°C° 0 mm 2 mps 745 mmHg 77%
09:00 +17°C° 0 mm 3 mps 745 mmHg 72%
10:00 +18°C° 0 mm 3 mps 745 mmHg 68%
11:00 +19°C° 0 mm 3 mps 745 mmHg 65%
12:00 +20°C° 0 mm 3 mps 745 mmHg 61%
13:00 +21°C° 0 mm 3 mps 744 mmHg 60%
14:00 +21°C° 0 mm 3 mps 744 mmHg 58%
15:00 +22°C° 0 mm 3 mps 744 mmHg 57%
16:00 +21°C° 0 mm 3 mps 744 mmHg 60%
17:00 +21°C° 0 mm 2 mps 744 mmHg 63%
18:00 +20°C° 0 mm 2 mps 744 mmHg 66%
19:00 +18°C° 0 mm 2 mps 744 mmHg 72%
20:00 +18°C° 0 mm 1 mps 744 mmHg 79%
21:00 +14°C° 0 mm 0 mps 744 mmHg 86%
22:00 +14°C° 0 mm 0 mps 744 mmHg 86%
23:00 +13°C° 0 mm 0 mps 744 mmHg 87%

Day after tomorrow, 26 July, Monday

Time Temperature Precipitation Wind Pressure Humidity
00:00 +13°C° 0 mm 0 mps 744 mmHg 87%
01:00 +13°C° 0 mm 0 mps 743 mmHg 88%
02:00 +14°C° 0 mm 1 mps 743 mmHg 88%
03:00 +14°C° 0 mm 1 mps 743 mmHg 89%
04:00 +14°C° 0 mm 1 mps 743 mmHg 88%
05:00 +15°C° 0 mm 1 mps 742 mmHg 86%
06:00 +16°C° 0 mm 1 mps 742 mmHg 85%
07:00 +17°C° 0 mm 2 mps 742 mmHg 79%
08:00 +19°C° 0 mm 2 mps 742 mmHg 73%
09:00 +21°C° 0 mm 3 mps 742 mmHg 67%
10:00 +22°C° 0 mm 3 mps 742 mmHg 64%
11:00 +22°C° 0 mm 3 mps 741 mmHg 61%
12:00 +24°C° 0 mm 3 mps 741 mmHg 57%
13:00 +25°C° 0 mm 3 mps 741 mmHg 56%
14:00 +25°C° 0 mm 3 mps 741 mmHg 54%
15:00 +25°C° 0 mm 4 mps 740 mmHg 52%
16:00 +23°C° 0 mm 4 mps 740 mmHg 56%
17:00 +22°C° 0 mm 4 mps 740 mmHg 61%
18:00 +20°C° 0 mm 4 mps 740 mmHg 65%
19:00 +19°C° 0 mm 3 mps 741 mmHg 71%
20:00 +17°C° 0 mm 3 mps 741 mmHg 78%
21:00 +14°C° 0 mm 3 mps 741 mmHg 84%
22:00 +14°C° 0 mm 2 mps 741 mmHg 87%
23:00 +13°C° 0 mm 2 mps 741 mmHg 91%

27 July, Tuesday

Time Temperature Precipitation Wind Pressure Humidity
00:00 +13°C° 0 mm 2 mps 741 mmHg 94%
01:00 +12°C° 0 mm 2 mps 741 mmHg 94%
02:00 +12°C° 0 mm 2 mps 741 mmHg 95%
03:00 +12°C° 0 mm 2 mps 741 mmHg 96%
04:00 +12°C° 0 mm 2 mps 741 mmHg 94%
05:00 +13°C° 0 mm 2 mps 741 mmHg 93%
06:00 +14°C° 0 mm 2 mps 741 mmHg 91%
07:00 +15°C° 0 mm 2 mps 742 mmHg 86%
08:00 +16°C° 0 mm 2 mps 742 mmHg 80%
09:00 +17°C° 0 mm 3 mps 742 mmHg 75%
10:00 +18°C° 0 mm 3 mps 742 mmHg 68%
11:00 +20°C° 0 mm 3 mps 742 mmHg 61%
12:00 +21°C° 0 mm 4 mps 742 mmHg 54%
13:00 +21°C° 0 mm 3 mps 742 mmHg 51%
14:00 +21°C° 0 mm 3 mps 742 mmHg 49%
15:00 +22°C° 0 mm 3 mps 742 mmHg 46%
16:00 +21°C° 0 mm 3 mps 742 mmHg 49%
17:00 +21°C° 0 mm 2 mps 742 mmHg 53%
18:00 +20°C° 0 mm 2 mps 742 mmHg 56%
19:00 +18°C° 0 mm 2 mps 742 mmHg 63%
20:00 +16°C° 0 mm 1 mps 742 mmHg 71%
21:00 +14°C° 0 mm 1 mps 742 mmHg 78%
22:00 +14°C° 0.1 mm 1 mps 742 mmHg 82%
23:00 +14°C° 0.1 mm 2 mps 741 mmHg 86%

28 July, Wednesday

Time Temperature Precipitation Wind Pressure Humidity
00:00 +13°C° 0.1 mm 2 mps 741 mmHg 91%
01:00 +13°C° 0.1 mm 2 mps 741 mmHg 92%
02:00 +14°C° 0.1 mm 2 mps 740 mmHg 94%
03:00 +14°C° 0.1 mm 2 mps 740 mmHg 96%
04:00 +14°C° 2.2 mm 2 mps 739 mmHg 96%
05:00 +14°C° 2.2 mm 2 mps 738 mmHg 97%
06:00 +13°C° 2.2 mm 2 mps 738 mmHg 98%
07:00 +13°C° 5.8 mm 2 mps 737 mmHg 98%
08:00 +13°C° 5.8 mm 2 mps 737 mmHg 98%
09:00 +13°C° 5.8 mm 1 mps 737 mmHg 98%
10:00 +13°C° 5.9 mm 2 mps 736 mmHg 97%
11:00 +12°C° 5.9 mm 3 mps 736 mmHg 97%
12:00 +12°C° 5.9 mm 3 mps 735 mmHg 97%
13:00 +13°C° 1.6 mm 3 mps 735 mmHg 95%
14:00 +13°C° 1.6 mm 3 mps 735 mmHg 93%
15:00 +13°C° 1.6 mm 4 mps 735 mmHg 91%
16:00 +13°C° 0.2 mm 3 mps 735 mmHg 89%
17:00 +14°C° 0.2 mm 3 mps 735 mmHg 88%
18:00 +14°C° 0.2 mm 3 mps 735 mmHg 86%
19:00 +14°C° 0.1 mm 2 mps 735 mmHg 89%
20:00 +13°C° 0.1 mm 2 mps 735 mmHg 92%
21:00 +12°C° 0.1 mm 1 mps 735 mmHg 95%
22:00 +11°C° 0 mm 1 mps 735 mmHg 95%
23:00 +11°C° 0 mm 1 mps 735 mmHg 95%

29 July, Thursday

Time Temperature Precipitation Wind Pressure Humidity
00:00 +10°C° 0 mm 1 mps 735 mmHg 96%
01:00 +10°C° 0 mm 1 mps 735 mmHg 96%
02:00 +10°C° 0 mm 1 mps 735 mmHg 96%
03:00 +8°C° 0 mm 2 mps 735 mmHg 96%
04:00 +9°C° 0 mm 2 mps 735 mmHg 96%
05:00 +9°C° 0 mm 2 mps 735 mmHg 95%
06:00 +10°C° 0 mm 2 mps 735 mmHg 95%
07:00 +12°C° 0 mm 2 mps 735 mmHg 88%
08:00 +12°C° 0 mm 3 mps 735 mmHg 82%
09:00 +14°C° 0 mm 4 mps 735 mmHg 75%
10:00 +14°C° 0 mm 4 mps 735 mmHg 75%
11:00 +14°C° 0 mm 4 mps 735 mmHg 75%
12:00 +14°C° 0 mm 5 mps 735 mmHg 75%
13:00 +14°C° 0 mm 5 mps 735 mmHg 78%
14:00 +13°C° 0 mm 4 mps 735 mmHg 82%
15:00 +13°C° 0 mm 4 mps 735 mmHg 85%
16:00 +13°C° 0 mm 4 mps 735 mmHg 86%
17:00 +13°C° 0 mm 4 mps 736 mmHg 87%
18:00 +13°C° 0 mm 3 mps 736 mmHg 89%
19:00 +13°C° 0 mm 3 mps 736 mmHg 89%
20:00 +13°C° 0 mm 3 mps 736 mmHg 89%
21:00 +12°C° 0 mm 3 mps 737 mmHg 89%
22:00 +11°C° 0 mm 3 mps 737 mmHg 90%
23:00 +11°C° 0 mm 3 mps 737 mmHg 92%
Show more